Timeline UpdatesTrip UpdatesNews PostsPvt PostsTravel TipsAdmin PostsConv PostsFollowed PostsChat RequestsBlog PostsPNR Posts

Disclaimer
Search
 
 
Thu Apr 24, 2014 13:54:38 ISTHomeTrainsΣChainsAtlasPNRForumGalleryNewsFAQTripsMembersLoginFeedback
No Recent News for this Train
Other Trains in the News **new
Latest...
.
Sat Feb 02, 2013 (04:10PM)
⇐ Return Journey: Train# 51187

51188/Katni Bhusaval Passenger (UnReserved)

Oct 05 2013 (11:32PM)
Change Departure Station:
Change Arrival Station:
Post a Train Travel TipPost a Train Travel Tip **new
Post a Comment/Question/Picture/VideoPost a Comment/Question/Picture/Video
Pantry/Catering
???
RSA - Rake Sharing
Rake/Coach Composition
Loco
KTE-ET: KTE/ET WDM-3A ET-BSL: BSL/ET WAP-4
News    PNR    Forum    Time-Table    Availability    Fare Chart    Map    Arr/Dep History    Trips    Gallery    ΣChains    X/O    Timeline    
Travel Time: 7h 0m    23 halts    Distance: 199 km    Avg Speed: 28 km/hr
Type: Passenger
Zone: CR/Central
Departs @ 10:00 (Avg 3h 7m late)
Platform# 1
SMTWTFS
Khirkiya/KKN 
Arrives @ 17:00 (Avg 2h 0m late)
Platform# 6
SMTWTFS
Bhusaval Junction/BSL 

23 halts. 24 intermediate Stations between Khirkiya and Bhusaval Junction

Show ALL intermediate Stations  Show Old Time-Table

#CodeStation NameX/OArrivesAvgDepartsAvgHaltPFDay#KmSpeedElevZoneAddress
1KTEKatni Junction (6)  -22:20+1:0251-443.231387mWCRKatni, Madhya Pradesh
2MDRRMadhavnagar Road (2)X  22:30+1:1322:31+1:131m--1-438.048398mWCRMadhavnagar, Madhya Pradesh
3NWRNiwar (2)X  22:41+1:1322:42+1:241m--1-430.052412mWCRPipraundh, Madhya Pradesh
4SNRRSansarpur (2)X  22:51+1:2322:52+1:231m--1-422.259436mWCRNational Highway 7, Madhya Pradesh
5SBDSleemanabad Road (2)X  22:59+1:1123:00+1:131m--1-415.357434mWCRSleemanabad, Madhya Pradesh
6DDCEDundi (2)X  23:10+1:2423:11+1:291m--1-405.860415mWCRDundi, Madhya Pradesh
7SHRSihora Road (2)X  23:26+1:2323:28+1:242m--1-390.961388mWCRJabalpur, Madhya Pradesh
8GSPRGosalpur (2)X  23:39+1:2823:40+1:291m--1-379.857396mWCRJabalpur, Madhya Pradesh
9DOEDeori (2)  23:51+1:3123:52+1:321m--1-369.348392mWCRJabalpur, Madhya Pradesh
10ADTLAdhartal (2)X  00:03+1:3000:04+1:361m--2-360.530393mWCRJabalpur, Madhya Pradesh
11JBPJabalpur Junction (7)X  00:20+1:2200:30+1:3710m12-352.553416mWCRJabalpur, Madhya Pradesh
12MMLMadan Mahal (3)  00:34+1:5100:36+1:512m12-349.056428mWCRJabalpur, Madhya Pradesh
13BRGTBheraghat (2)  00:50+1:5100:51+1:531m--2-335.961389mWCRBheraghat, Madhya Pradesh
14BHTNBhitoni (2)X  01:04+1:5201:05+1:591m--2-322.858377mWCRJabalpur, Madhya Pradesh
15BMRBikrampur (2)  01:17+1:5801:18+2:041m--2-311.265353mWCRBikrampur Dist Narsingpur., Madhya Pradesh
16SRIDShridham (3)XO  01:29+2:0701:31+2:132m32-299.354373mWCRShridham, Madhya Pradesh
17KKBKarak Bel (2)  01:48+2:0801:49+2:091m--2-284.029375mWCRKarak Bel, Madhya Pradesh
18BELDBelkhera (2)O  01:58+2:0601:59+2:111m--2-279.633367mWCRState Highway 22, Madhya Pradesh
19GPCGhatpindrai (2)  02:09+2:1002:10+2:131m--2-274.135366mWCRGhatpindra, Madhya Pradesh
20NUNarsinghpur (2)X  02:20+2:1602:22+2:252m22-268.370365mWCRNarsimhapur, Madhya Pradesh
21KYKareli (2)X  02:36+2:2802:37+2:311m22-251.945361mWCRKareli, Madhya Pradesh
22KFYKarapgaon (2)XO  02:48+2:2002:49+2:201m--2-243.645364mWCRNational Highway 26, Madhya Pradesh
23BNEBohani (2)X  02:58+2:2002:59+2:291m--2-236.978361mWCRNarsinghpur, Madhya Pradesh
24GARGadarwara (2)X  03:09+2:1903:10+2:271m22-223.956352mWCRNarsinghpur, Madhya Pradesh
25SCKRSalichauka Road (2)X  03:25+2:3703:26+2:421m--2-210.061355mWCRGadarwara, Madhya Pradesh
26JHTJunehta (2)X  03:36+2:4103:37+2:411m--2-199.955353mWCRState Highway 22, Madhya Pradesh
27BKHBankhedi (2)X  03:44+2:4103:46+2:462m--2-193.567351mWCRBankheri, Madhya Pradesh
28PPIPipariya (3)X  04:03+2:4104:05+2:552m32-174.640338mWCRPiparia, Madhya Pradesh
29SXFSobhapur (2)X  04:18+2:5304:19+2:531m--2-165.945338mWCRState Highway 22, Madhya Pradesh
30SGPSohagpur (2)X  04:31+2:5304:33+2:552m--2-156.943340mWCRSohagpur, Madhya Pradesh
31GMDGuramkhedi (2)  04:47+2:5104:48+2:551m--2-146.849337mWCRSohagpur, Madhya Pradesh
32BGTABagra Tawa (2)O  05:04+2:5105:05+3:041m--2-133.829338mWCRBagra Tawa, Madhya Pradesh
33SQLSontalai (2)X  05:19+3:0005:20+3:031m--2-126.927329mWCRItarsi, Madhya Pradesh
34GROGurra (2)X  05:40+2:5305:41+3:041m--2-117.916327mWCRItarsi, Madhya Pradesh
35ETItarsi Junction (7)X  06:20+2:4306:45+3:0125m--2-107.357329mWCRItarsi 461111, Madhya Pradesh
36DRADularia (2)  06:58+3:1806:59+3:231m--2-95.142318mWCRItarsi, Madhya Pradesh
37KTZKhutwansa (2)X  07:07+3:2007:08+3:201m--2-89.549325mWCRSH 15, Madhya Pradesh
38DKIDharamkundi (2)O  07:17+3:2007:18+3:201m--2-82.131314mWCRSH 15, Madhya Pradesh
39BPFBanapura (2)  07:34+3:0907:35+3:141m--2-73.949314mWCRBanapura, Madhya Pradesh
40BIFBhaironpur (2)O  07:44+3:1807:45+3:181m--2-66.649322mWCRSH 15, Madhya Pradesh
41PGLPagdhal (2)X  07:54+3:1707:55+3:271m--2-59.341317mWCRPagdhal, Madhya Pradesh
42CGOChhidgaon (2)X  08:01+3:1408:02+3:141m--2-55.126309mWCRHarda, Madhya Pradesh
43TBNTimarni (2)  08:24+3:1408:25+3:151m--2-45.747308mWCRTimarni, Madhya Pradesh
44CRKCharkhera (2)O  08:34+3:1408:35+3:171m--2-38.623298mWCRBarkalan, Madhya Pradesh
45HDHarda (3)X  08:53+3:0808:55+3:102m--2-31.564289mWCRHarda, Madhya Pradesh
46PALPalasner (2)X  09:02+3:1009:03+3:111m--2-24.139296mWCRHarda, Madhya Pradesh
47MUOMasangaon (2)XO  09:12+3:0809:13+3:091m--2-18.212303mWCRSH 15, Madhya Pradesh
48BRIBhiringi (2)  09:39+2:5309:40+3:021m--2-13.0100294mWCRSH 15, Madhya Pradesh
49KROKurawan (2)X  09:44+2:5809:45+2:581m--2-6.429297mWCRSH 15, Madhya Pradesh
50KKN»Khirkiya (2)»O  09:58+3:0510:00+3:072m120.039281mWCRSH 15, Madhya Pradesh
51DRHIDagarhkeri (2)XO  10:17+2:5410:18+2:561m--210.920274mWCRState Highway 15, Madhya Pradesh
52BRUDBarud (2)X  10:47+2:3910:48+2:421m--220.576273mWCRKhandwa, Madhya Pradesh
53CAERChhanera (2)XO  10:56+2:4210:58+2:452m--230.721283mWCRChhanera, Madhya Pradesh
54CKKDCharkheda Khurd (2)  11:17+2:3611:18+2:391m--237.523274mWCRKhandwa, Madhya Pradesh
55SGBJSurgaon Banjari (2)  11:47+2:2311:48+2:251m--248.671298mWCRKhandwa, Madhya Pradesh
56TLVTalvadiya (2)O  11:58+2:2612:00+2:282m--260.456308mWCRKhandwa, Madhya Pradesh
57MTAMathela (2)XO  12:09+2:2612:10+2:271m--268.76322mWCRKhandwa, Madhya Pradesh
58KNWKhandwa Junction (5)  13:20+2:1213:30+2:1310m--276.144310mCRKhandwa, Madhya Pradesh
59BRGJBargaon Gujar (2)X  13:37+1:4813:38+1:491m--281.260316mCRKhandwa, Madhya Pradesh
60BMABagmar (2)X  13:44+1:4913:45+1:521m--287.266335mCRState Highway 27, Madhya Pradesh
61KDKKohdad (2)X  13:49+1:5313:50+1:531m--291.657344mCRState Highway 15, Madhya Pradesh
62DGNDongargaon (2)  13:58+1:5313:59+1:561m--299.258373mCRBorgaon, Madhya Pradesh
63SXASagphata (2)  14:07+1:5614:08+1:561m--2106.951350mCRKhandwa, Madhya Pradesh
64MWAMandwa (2)X  14:15+1:5714:16+1:591m--2112.944317mCRState Highway 27, Madhya Pradesh
65NPNRNepanagar (2)  14:24+2:0614:26+2:072m--2118.753289mCRState Highway 27, Madhya Pradesh
66CDIChandni (2)  14:34+1:5814:35+1:581m--2125.877276mCRNepanagar Rd, Madhya Pradesh
67AGQAsirgarh Road (2)X  14:43+1:5814:44+1:591m--2136.067259mCRState Highway 27, Madhya Pradesh
68BAUBurhanpur (2)X  14:52+2:1614:55+2:173m12145.062269mCRBurhanpur, Madhya Pradesh
69WGAWaghodaX  15:05+2:0015:06+2:031m--2155.260259mCRChorwad, Maharashtra
70RVRaver (2)X  15:16+2:1615:18+2:162m--2165.268242mCRJalgaon, Maharashtra
71NBNimbhoraX  15:27+2:0215:28+2:051m--2175.358229mCRJalgaon, Maharashtra
72SAVSavda (2)X  15:37+2:0715:38+2:071m--2184.058220mCRSavda, Maharashtra
73DSKDuskheda (2)X  15:47+2:0615:48+2:071m--2192.76213mCRDuskheda Station, Maharashtra
74BSL•Bhusaval Junction (8)•  17:00+2:00-62199.5-208mCRBhusaval 425201, Maharashtra
Scroll to Top
Scroll to Bottom